Mackinac Island, MI

9:58 AM EST on February 06, 2016 (GMT -0500)
Mackinac Island

Weather History for KMCD - October, 2012

Change the Weather History Date:

Friday, October 19, 2012

  Actual Average Record
Temperature  
Mean Temperature 46 °F -  
Max Temperature 49 °F 49 °F 62 °F (2000)
Min Temperature 44 °F 39 °F 20 °F (1974)
Degree Days  
Heating Degree Days 18    
Moisture  
Dew Point 42 °F    
Average Humidity 86    
Maximum Humidity 95    
Minimum Humidity 73    
Precipitation  
Precipitation 0.00 in - - ()
Sea Level Pressure  
Sea Level Pressure 29.61 in    
Wind  
Wind Speed 6 mph (ESE)    
Max Wind Speed 13 mph    
Max Gust Speed 22 mph    
Visibility 9 miles    
Events Rain    
Averages and records for this station are not official NWS values.
T = Trace of Precipitation, MM = Missing Value Source: NWS Daily Summary

Daily Weather History Graph

Daily Weather History Graph

Search for Another Location

Airport or City:

Trip Planner

Search our weather history database for the weather conditions in past years. The results will help you decide how hot, cold, wet, or windy it might be!

Date:

Astronomy

Oct. 19, 2012 Rise Set
Actual Time 8:01 AM EDT 6:44 PM EDT
Civil Twilight 7:31 AM EDT 7:15 PM EDT
Nautical Twilight 6:56 AM EDT 7:49 PM EDT
Astronomical Twilight 6:21 AM EDT 8:24 PM EDT
Moon 12:54 PM EDT (10/19) 10:11 PM EDT (10/19)
Length of Visible Light 11h 43m
Length of Day
10h 43m
Waxing Crescent, 23% of the Moon is Illuminated
Oct 19
Waxing Crescent
Oct 21
First Quarter
Oct 29
Full
Nov 6
Last Quarter
Nov 13
New

Hourly Weather History & Observations

Time (EDT) Temp. Windchill Dew Point Humidity Pressure Visibility Wind Dir Wind Speed Gust Speed Precip Events Conditions
12:33 AM 46.4 °F 43.5 °F 39.7 °F 78% 29.62 in 10.0 mi SE 5.8 mph - N/A   Overcast
1:14 AM 46.4 °F 42.9 °F 39.6 °F 77% 29.60 in 10.0 mi SE 6.9 mph - N/A   Scattered Clouds
1:33 AM 46.0 °F 43.1 °F 39.9 °F 79% 29.60 in 10.0 mi SE 5.8 mph - N/A   Mostly Cloudy
1:54 AM 46.4 °F 43.5 °F 39.4 °F 77% 29.60 in 10.0 mi SE 5.8 mph - N/A   Overcast
2:14 AM 46.8 °F - 38.5 °F 73% 29.60 in 10.0 mi SE 4.6 mph - N/A   Overcast
2:33 AM 46.0 °F 43.1 °F 39.0 °F 76% 29.60 in 10.0 mi ESE 5.8 mph - N/A   Overcast
2:54 AM 46.8 °F - 40.3 °F 78% 29.60 in 10.0 mi ESE 8.1 mph - N/A   Overcast
3:14 AM 46.4 °F 43.5 °F 41.0 °F 81% 29.60 in 10.0 mi ESE 5.8 mph - N/A   Overcast
3:34 AM 46.0 °F 43.1 °F 41.0 °F 83% 29.60 in 10.0 mi SE 5.8 mph - N/A   Mostly Cloudy
3:54 AM 46.4 °F 43.5 °F 39.9 °F 78% 29.60 in 10.0 mi SSE 5.8 mph - N/A   Scattered Clouds
4:14 AM 46.0 °F 42.5 °F 39.6 °F 78% 29.60 in 10.0 mi SE 6.9 mph - N/A   Clear
4:54 AM 45.9 °F 42.9 °F 39.4 °F 78% 29.60 in 10.0 mi SE 5.8 mph - N/A   Mostly Cloudy
5:14 AM 45.5 °F 42.5 °F 39.4 °F 79% 29.60 in 10.0 mi ESE 5.8 mph - N/A   Scattered Clouds
5:34 AM 45.5 °F 41.8 °F 39.4 °F 79% 29.60 in 10.0 mi SE 6.9 mph - N/A   Clear
5:54 AM 45.5 °F 44.2 °F 39.2 °F 79% 29.60 in 10.0 mi SE 3.5 mph - N/A   Scattered Clouds
6:14 AM 45.5 °F 43.2 °F 39.2 °F 79% 29.60 in 10.0 mi SE 4.6 mph - N/A   Scattered Clouds
6:34 AM 45.5 °F 43.2 °F 38.8 °F 78% 29.61 in 10.0 mi SE 4.6 mph - N/A   Mostly Cloudy
6:54 AM 45.5 °F 44.2 °F 39.6 °F 80% 29.61 in 10.0 mi SSE 3.5 mph - N/A   Scattered Clouds
7:14 AM 45.7 °F 44.4 °F 40.3 °F 81% 29.62 in 10.0 mi SSE 3.5 mph - N/A   Overcast
7:34 AM 45.5 °F 44.2 °F 40.1 °F 81% 29.62 in 10.0 mi SE 3.5 mph - N/A   Overcast
7:54 AM 45.5 °F 42.5 °F 39.6 °F 80% 29.62 in 10.0 mi SE 5.8 mph - N/A   Mostly Cloudy
8:14 AM 45.5 °F 44.2 °F 39.7 °F 80% 29.63 in 10.0 mi SSE 3.5 mph - N/A   Scattered Clouds
8:34 AM 45.5 °F 44.2 °F 40.3 °F 82% 29.63 in 10.0 mi ESE 3.5 mph - N/A   Overcast
8:54 AM 45.9 °F 42.3 °F 41.0 °F 83% 29.64 in 10.0 mi ESE 6.9 mph - N/A   Overcast
9:14 AM 46.4 °F 45.2 °F 40.8 °F 81% 29.63 in 10.0 mi ESE 3.5 mph - N/A   Mostly Cloudy
9:34 AM 46.6 °F - 41.0 °F 81% 29.63 in 10.0 mi Calm Calm - N/A   Scattered Clouds
9:54 AM 46.4 °F 44.3 °F 41.4 °F 83% 29.63 in 10.0 mi East 4.6 mph - N/A   Overcast
10:14 AM 46.9 °F - 41.7 °F 82% 29.63 in 10.0 mi NE 6.9 mph - N/A   Mostly Cloudy
10:34 AM 47.7 °F - 42.1 °F 81% 29.63 in 10.0 mi ENE 5.8 mph - N/A   Scattered Clouds
10:54 AM 48.2 °F - 41.5 °F 78% 29.63 in 10.0 mi East 8.1 mph - N/A   Scattered Clouds
11:14 AM 48.7 °F - 43.5 °F 82% 29.63 in 10.0 mi ENE 5.8 mph - N/A   Scattered Clouds
11:34 AM 48.6 °F - 44.8 °F 87% 29.62 in 10.0 mi East 8.1 mph - N/A   Mostly Cloudy
11:54 AM 48.2 °F - 46.0 °F 92% 29.62 in 10.0 mi East 8.1 mph - N/A   Overcast
12:14 PM 48.9 °F - 47.3 °F 94% 29.62 in 5.0 mi East 10.4 mph 20.7 mph N/A   Overcast
12:34 PM 48.7 °F - 47.3 °F 95% 29.63 in 5.0 mi East 11.5 mph 20.7 mph N/A   Overcast
12:54 PM 49.1 °F - 47.3 °F 93% 29.62 in 5.0 mi East 11.5 mph 20.7 mph N/A   Overcast
1:14 PM 48.7 °F - 47.3 °F 95% 29.61 in 5.0 mi East 9.2 mph 19.6 mph N/A   Overcast
1:34 PM 48.6 °F - 46.8 °F 93% 29.60 in 5.0 mi East 10.4 mph 18.4 mph N/A   Overcast
1:54 PM 48.2 °F - 46.4 °F 93% 29.63 in 3.0 mi SSE 12.7 mph 21.9 mph N/A Rain Heavy Rain
2:13 PM 44.2 °F 42.7 °F 41.5 °F 90% 29.61 in 10.0 mi SSE 3.5 mph - N/A Rain Light Rain
2:34 PM 45.0 °F 42.6 °F 42.6 °F 91% 29.61 in 7.0 mi East 4.6 mph - N/A Rain Light Rain
3:13 PM 44.8 °F 41.6 °F 42.8 °F 93% 29.60 in 5.0 mi East 5.8 mph - N/A Rain Light Rain
3:34 PM 45.5 °F 41.8 °F 43.7 °F 93% 29.60 in 10.0 mi East 6.9 mph - N/A Rain Light Rain
3:54 PM 45.9 °F 41.7 °F 43.7 °F 92% 29.60 in 10.0 mi ESE 8.1 mph - N/A   Overcast
4:13 PM 46.4 °F 43.5 °F 44.1 °F 92% 29.59 in 10.0 mi ESE 5.8 mph - N/A   Overcast
4:34 PM 46.8 °F - 44.6 °F 92% 29.59 in 10.0 mi East 6.9 mph - N/A   Overcast
5:14 PM 46.4 °F 42.4 °F 44.4 °F 93% 29.60 in 10.0 mi East 8.1 mph - N/A   Overcast
5:34 PM 46.6 °F - 44.6 °F 93% 29.59 in 10.0 mi East 6.9 mph - N/A   Light Drizzle
5:54 PM 46.8 °F - 44.8 °F 93% 29.59 in 10.0 mi East 5.8 mph - N/A   Overcast
6:14 PM 47.5 °F - 45.0 °F 91% 29.59 in 10.0 mi East 6.9 mph 16.1 mph N/A   Overcast
6:54 PM 47.8 °F - 45.5 °F 92% 29.60 in 10.0 mi SE 5.8 mph - N/A   Overcast
7:14 PM 48.2 °F - 45.5 °F 90% 29.60 in 7.0 mi ESE 6.9 mph - N/A Rain Rain
7:54 PM 45.0 °F 43.5 °F 43.3 °F 94% 29.61 in 2.5 mi SE 3.5 mph - N/A   Overcast
8:14 PM 45.3 °F 43.0 °F 43.5 °F 93% 29.61 in 7.0 mi ENE 4.6 mph - N/A Rain Light Rain
8:34 PM 45.3 °F 41.6 °F 43.7 °F 94% 29.61 in 10.0 mi East 6.9 mph - N/A   Overcast
8:54 PM 45.5 °F 40.3 °F 44.1 °F 95% 29.62 in 10.0 mi East 10.4 mph 16.1 mph N/A   Overcast
9:14 PM 45.5 °F 41.3 °F 43.9 °F 94% 29.62 in 10.0 mi East 8.1 mph 17.3 mph N/A   Overcast
9:34 PM 45.9 °F 40.4 °F 44.6 °F 95% 29.62 in 10.0 mi East 11.5 mph - N/A   Overcast
10:14 PM 45.5 °F 41.8 °F 43.9 °F 94% 29.61 in 10.0 mi East 6.9 mph - N/A   Mostly Cloudy
10:34 PM 45.3 °F 40.6 °F 43.9 °F 95% 29.62 in 10.0 mi East 9.2 mph - N/A   Mostly Cloudy
10:54 PM 45.5 °F 40.3 °F 43.9 °F 94% 29.62 in 10.0 mi East 10.4 mph - N/A   Mostly Cloudy
11:14 PM 45.5 °F 41.3 °F 43.7 °F 93% 29.61 in 10.0 mi East 8.1 mph - N/A   Scattered Clouds
11:34 PM 45.7 °F 41.0 °F 43.9 °F 93% 29.61 in 10.0 mi East 9.2 mph - N/A   Scattered Clouds
11:54 PM 45.9 °F 41.7 °F 43.9 °F 93% 29.61 in 10.0 mi East 8.1 mph - N/A   Scattered Clouds